GW0353 Weather Reports


time (UTC)temp
C
wind
direction
speed
KPH
gust
KPH
rain 1hr
cm
rain 24hr
cm
rain mn
cm
humidity
%
barometer
mb
20260508044058 13 0 1.6 6.4 0.00 0.00 0.00 62 1025.5
20260508043557 13 0 1.6 6.4 0.00 0.00 0.00 61 1025.7
20260508043100 13 0 0.0 8.0 0.00 0.00 0.00 59 1025.5
20260508042559 13 58 0.0 8.0 0.00 0.00 0.00 58 1025.5
20260508042057 13 174 1.6 14.5 0.00 0.00 0.00 58 1025.3
20260508041557 14 0 4.8 14.5 0.00 0.00 0.00 58 1025.2
20260508041057 14 83 0.0 6.4 0.00 0.00 0.00 57 1025.1
20260508040557 14 233 0.0 6.4 0.00 0.00 0.00 56 1025.1
20260508040101 14 54 3.2 6.4 0.00 0.00 0.00 55 1024.8
20260508035556 14 137 0.0 8.0 0.00 0.00 0.00 56 1024.9
20260508035057 14 156 1.6 11.3 0.00 0.00 0.00 55 1024.7
20260508034555 14 112 4.8 11.3 0.00 0.00 0.00 53 1024.6
20260508034056 15 0 3.2 6.4 0.00 0.00 0.00 52 1024.5
20260508033557 15 178 0.0 6.4 0.00 0.00 0.00 51 1024.4
20260508033115 15 0 1.6 20.9 0.00 0.00 0.00 51 1024.2
20260508032555 15 58 9.7 20.9 0.00 0.00 0.00 50 1024.0
20260508032100 15 51 9.7 14.5 0.00 0.00 0.00 49 1023.9
20260508031556 15 150 1.6 3.2 0.00 0.00 0.00 44 1024.0
20260508031057 15 0 0.0 3.2 0.00 0.00 0.00 42 1023.8
20260508030557 15 0 0.0 3.2 0.00 0.00 0.00 42 1023.8
20260508030108 16 0 1.6 3.2 0.00 0.00 0.00 41 1023.7
20260508025557 16 0 0.0 3.2 0.00 0.00 0.00 40 1023.7
20260508025058 17 0 0.0 4.8 0.00 0.00 0.00 39 1023.6
20260508024619 17 0 0.0 6.4 0.00 0.00 0.00 39 1023.7
20260508024059 17 260 1.6 8.0 0.00 0.00 0.00 39 1023.6
20260508023556 17 109 0.0 9.7 0.00 0.00 0.00 39 1023.5
20260508023055 17 278 4.8 9.7 0.00 0.00 0.00 38 1023.5
20260508022559 17 271 1.6 9.7 0.00 0.00 0.00 37 1023.4
20260508022056 18 294 1.6 8.0 0.00 0.00 0.00 38 1023.3
20260508021558 18 286 1.6 9.7 0.00 0.00 0.00 38 1023.3
20260508021056 18 257 0.0 9.7 0.00 0.00 0.00 37 1023.3
20260508020557 18 260 0.0 9.7 0.00 0.00 0.00 37 1023.3
20260508020111 18 271 1.6 9.7 0.00 0.00 0.00 36 1023.2
20260508015558 19 48 1.6 9.7 0.00 0.00 0.00 35 1023.2
20260508015100 19 0 0.0 9.7 0.00 0.00 0.00 35 1023.2
20260508014613 19 52 1.6 11.3 0.00 0.00 0.00 35 1023.2
20260508014058 20 108 3.2 11.3 0.00 0.00 0.00 34 1023.2
20260508013557 20 0 1.6 9.7 0.00 0.00 0.00 33 1023.2
20260508013107 21 232 3.2 9.7 0.00 0.00 0.00 31 1023.1
20260508012557 21 117 0.0 8.0 0.00 0.00 0.00 32 1023.3
20260508012057 21 16 1.6 11.3 0.00 0.00 0.00 31 1023.3
20260508011603 21 0 0.0 11.3 0.00 0.00 0.00 31 1023.3
20260508011102 21 45 3.2 12.9 0.00 0.00 0.00 31 1023.2
20260508010557 21 34 3.2 17.7 0.00 0.00 0.00 31 1023.1
20260508010105 21 250 1.6 19.3 0.00 0.00 0.00 31 1023.2
20260508005557 21 266 3.2 20.9 0.00 0.00 0.00 31 1023.1
20260508005057 21 207 3.2 20.9 0.00 0.00 0.00 30 1023.1
20260508004556 22 238 3.2 20.9 0.00 0.00 0.00 30 1023.1
20260508004057 22 255 6.4 12.9 0.00 0.00 0.00 30 1023.1
20260508003556 22 290 0.0 11.3 0.00 0.00 0.00 30 1023.1
20260508003057 22 266 1.6 12.9 0.00 0.00 0.00 28 1023.1
20260508002556 22 33 3.2 17.7 0.00 0.00 0.00 28 1023.1
20260508002056 22 351 4.8 17.7 0.00 0.00 0.00 29 1023.0
20260508001559 22 117 4.8 17.7 0.00 0.00 0.00 28 1023.1
20260508001056 23 34 4.8 16.1 0.00 0.00 0.00 28 1023.1
20260508000558 23 226 3.2 22.5 0.00 0.00 0.00 27 1023.0
20260508000057 23 219 1.6 22.5 0.00 0.00 0.00 27 1022.9
20260507235557 23 101 3.2 14.5 0.00 0.00 0.00 27 1022.9
20260507235057 23 198 1.6 14.5 0.00 0.00 0.00 27 1022.9
20260507234557 23 275 3.2 11.3 0.00 0.00 0.00 24 1022.8
20260507234057 23 0 3.2 11.3 0.00 0.00 0.00 24 1022.8
20260507233557 23 233 1.6 8.0 0.00 0.00 0.00 22 1022.6
20260507233055 23 0 0.0 9.7 0.00 0.00 0.00 23 1022.9
20260507232556 23 252 1.6 17.7 0.00 0.00 0.00 23 1022.7
20260507232056 23 273 3.2 17.7 0.00 0.00 0.00 23 1023.0
20260507231557 23 117 4.8 17.7 0.00 0.00 0.00 24 1022.9
20260507231059 23 0 1.6 16.1 0.00 0.00 0.00 23 1023.0
20260507230559 23 299 3.2 16.1 0.00 0.00 0.00 20 1023.0
20260507230057 24 137 4.8 16.1 0.00 0.00 0.00 21 1023.1
20260507225557 23 72 3.2 12.9 0.00 0.00 0.00 22 1023.0
20260507225055 23 0 0.0 11.3 0.00 0.00 0.00 19 1023.2
20260507224602 23 224 3.2 11.3 0.00 0.00 0.00 21 1023.1
20260507224057 23 338 3.2 9.7 0.00 0.00 0.00 19 1023.1
20260507223557 23 19 1.6 16.1 0.00 0.00 0.00 21 1023.4
20260507223058 23 247 1.6 16.1 0.00 0.00 0.00 19 1023.5
20260507222559 23 227 3.2 11.3 0.00 0.00 0.00 20 1023.5
20260507222059 23 38 0.0 6.4 0.00 0.00 0.00 17 1023.5
20260507221559 23 155 1.6 6.4 0.00 0.00 0.00 18 1023.5
20260507221059 23 154 1.6 14.5 0.00 0.00 0.00 19 1023.5
20260507220558 23 74 1.6 14.5 0.00 0.00 0.00 18 1023.6
20260507220059 23 171 1.6 8.0 0.00 0.00 0.00 17 1023.7
20260507215559 24 257 1.6 8.0 0.00 0.00 0.00 16 1023.7
20260507215059 24 100 1.6 9.7 0.00 0.00 0.00 18 1023.9
20260507214557 23 214 4.8 9.7 0.00 0.00 0.00 17 1023.8
20260507214100 24 207 0.0 9.7 0.00 0.00 0.00 18 1024.0
20260507213601 24 134 3.2 16.1 0.00 0.00 0.00 18 1023.9
20260507213101 24 229 3.2 16.1 0.00 0.00 0.00 18 1024.0
20260507212558 23 198 6.4 14.5 0.00 0.00 0.00 18 1024.0
20260507212058 23 169 4.8 14.5 0.00 0.00 0.00 18 1024.0
20260507211558 23 146 4.8 22.5 0.00 0.00 0.00 17 1024.1
20260507211058 24 157 6.4 22.5 0.00 0.00 0.00 16 1024.1
20260507210602 24 242 8.0 22.5 0.00 0.00 0.00 18 1024.1
20260507210057 24 243 3.2 16.1 0.00 0.00 0.00 17 1024.2
20260507205559 24 176 6.4 16.1 0.00 0.00 0.00 18 1024.1
20260507205059 25 160 1.6 16.1 0.00 0.00 0.00 17 1024.2
20260507204559 24 250 8.0 16.1 0.00 0.00 0.00 18 1024.2
20260507204056 25 143 4.8 12.9 0.00 0.00 0.00 18 1024.3
20260507203559 24 279 4.8 12.9 0.00 0.00 0.00 18 1024.3
20260507203102 24 25 4.8 12.9 0.00 0.00 0.00 19 1024.4
20260507202558 24 243 3.2 11.3 0.00 0.00 0.00 15 1024.4
20260507202058 24 229 4.8 14.5 0.00 0.00 0.00 17 1024.5
20260507201558 24 196 4.8 14.5 0.00 0.00 0.00 17 1024.6
20260507201059 24 161 4.8 12.9 0.00 0.00 0.00 18 1024.6
20260507200600 24 274 3.2 11.3 0.00 0.00 0.00 17 1024.7
20260507200058 23 0 1.6 12.9 0.00 0.00 0.00 15 1024.7
20260507195558 23 227 1.6 12.9 0.00 0.00 0.00 16 1024.7
20260507195058 23 140 3.2 12.9 0.00 0.00 0.00 18 1024.7
20260507194613 23 58 3.2 12.9 0.00 0.00 0.00 17 1024.8
20260507194056 23 16 3.2 12.9 0.00 0.00 0.00 17 1024.7
20260507193557 22 67 3.2 12.9 0.00 0.00 0.00 18 1024.8
20260507193100 23 65 3.2 12.9 0.00 0.00 0.00 16 1025.0
20260507192559 23 134 1.6 6.4 0.00 0.00 0.00 17 1025.1
20260507192059 23 319 1.6 6.4 0.00 0.00 0.00 18 1025.2
20260507191604 23 305 1.6 9.7 0.00 0.00 0.00 17 1025.2
20260507191059 22 316 4.8 14.5 0.00 0.00 0.00 17 1025.2
20260507190559 22 326 4.8 14.5 0.00 0.00 0.00 18 1025.1
20260507185559 22 12 3.2 9.7 0.00 0.00 0.00 19 1025.4
20260507185058 21 302 1.6 9.7 0.00 0.00 0.00 20 1025.5
20260507184559 21 49 4.8 12.9 0.00 0.00 0.00 19 1025.6
20260507184059 21 90 4.8 12.9 0.00 0.00 0.00 21 1025.6
20260507183602 21 342 3.2 9.7 0.00 0.00 0.00 19 1025.7
20260507183106 21 16 3.2 6.4 0.00 0.00 0.00 19 1025.7
20260507182558 20 40 3.2 9.7 0.00 0.00 0.00 18 1025.6
20260507182058 20 60 1.6 9.7 0.00 0.00 0.00 17 1025.6
20260507181558 20 50 4.8 9.7 0.00 0.00 0.00 18 1025.8
20260507181058 20 355 4.8 9.7 0.00 0.00 0.00 21 1026.0
20260507180559 20 55 4.8 16.1 0.00 0.00 0.00 22 1026.0
20260507180059 19 47 3.2 16.1 0.00 0.00 0.00 23 1026.1
20260507175556 19 75 3.2 16.1 0.00 0.00 0.00 20 1026.0
20260507175059 18 67 4.8 11.3 0.00 0.00 0.00 24 1026.0
20260507174556 18 45 3.2 9.7 0.00 0.00 0.00 21 1026.0
20260507174058 18 50 3.2 9.7 0.00 0.00 0.00 22 1026.2
20260507173558 18 94 3.2 8.0 0.00 0.00 0.00 26 1026.2
20260507173109 17 358 4.8 8.0 0.00 0.00 0.00 27 1026.2
20260507172602 17 46 4.8 8.0 0.00 0.00 0.00 26 1026.2
20260507172058 17 51 4.8 6.4 0.00 0.00 0.00 32 1026.2
20260507171559 18 338 3.2 8.0 0.00 0.00 0.00 33 1026.2
20260507171058 18 49 3.2 8.0 0.00 0.00 0.00 35 1026.2
20260507170558 17 79 1.6 6.4 0.00 0.00 0.00 33 1026.2
20260507165558 16 49 3.2 4.8 0.00 0.00 0.00 35 1026.2
20260507165058 16 45 3.2 6.4 0.00 0.00 0.00 39 1026.2
20260507164557 15 57 4.8 6.4 0.00 0.00 0.00 39 1026.3
20260507164058 15 74 1.6 6.4 0.00 0.00 0.00 39 1026.2
20260507163558 15 58 3.2 6.4 0.00 0.00 0.00 41 1026.3
20260507163100 15 36 1.6 6.4 0.00 0.00 0.00 41 1026.3
20260507162558 15 322 1.6 4.8 0.00 0.00 0.00 41 1026.4
20260507162101 14 48 1.6 4.8 0.00 0.00 0.00 45 1026.5
20260507161600 13 13 0.0 6.4 0.00 0.00 0.00 47 1026.4
20260507161058 13 0 1.6 6.4 0.00 0.00 0.00 45 1026.4
20260507160559 12 0 1.6 6.4 0.00 0.00 0.00 47 1026.4
20260507160057 11 91 3.2 6.4 0.00 0.00 0.00 48 1026.5
20260507155558 11 86 1.6 4.8 0.00 0.00 0.00 49 1026.5
20260507155101 11 97 1.6 4.8 0.00 0.00 0.00 50 1026.7
20260507154559 10 92 1.6 4.8 0.00 0.00 0.00 52 1026.8
20260507154058 10 77 1.6 6.4 0.00 0.00 0.00 56 1026.9
20260507153557 10 32 3.2 6.4 0.00 0.00 0.00 56 1026.9
20260507153108 10 351 1.6 4.8 0.00 0.00 0.00 58 1026.9
20260507152558 9 27 1.6 4.8 0.00 0.00 0.00 59 1027.0
20260507152057 8 84 1.6 3.2 0.00 0.00 0.00 61 1027.0
20260507151558 8 60 0.0 3.2 0.00 0.00 0.00 62 1027.0
20260507151059 8 103 1.6 3.2 0.00 0.00 0.00 62 1027.0
20260507150558 8 0 0.0 0.0 0.00 0.00 0.00 66 1027.1
20260507150109 7 0 0.0 0.0 0.00 0.00 0.00 67 1027.1
20260507145558 7 0 0.0 1.6 0.00 0.00 0.00 69 1027.1
20260507145058 7 0 0.0 1.6 0.00 0.00 0.00 71 1027.2
20260507144559 7 0 0.0 1.6 0.00 0.00 0.00 71 1027.2
20260507144059 6 0 0.0 1.6 0.00 0.00 0.00 71 1027.1
20260507143558 6 0 0.0 1.6 0.00 0.00 0.00 72 1027.2
20260507143107 6 0 0.0 1.6 0.00 0.00 0.00 73 1027.2
20260507142558 5 0 0.0 1.6 0.00 0.00 0.00 73 1027.2
20260507142057 5 56 0.0 0.0 0.00 0.00 0.00 73 1027.2
20260507141559 5 0 0.0 1.6 0.00 0.00 0.00 75 1027.3
20260507141058 4 0 0.0 1.6 0.00 0.00 0.00 77 1027.1
20260507140555 3 0 0.0 1.6 0.00 0.00 0.00 78 1027.2
20260507135557 2 141 0.0 0.0 0.00 0.00 0.00 82 1027.1
20260507135057 1 0 0.0 3.2 0.00 0.00 0.00 84 1027.1
20260507134601 0 0 0.0 3.2 0.00 0.00 0.00 84 1027.3
20260507134058 0 0 1.6 3.2 0.00 0.00 0.00 84 1027.1
20260507133558 0 174 0.0 0.0 0.00 0.00 0.00 83 1027.1
20260507133100 0 0 0.0 0.0 0.00 0.00 0.00 82 1027.1
20260507132555 0 0 0.0 3.2 0.00 0.00 0.00 83 1026.8
20260507132055 0 0 0.0 3.2 0.00 0.00 0.00 83 1026.7
20260507131557 0 0 1.6 3.2 0.00 0.00 0.00 82 1026.6
20260507131056 0 0 0.0 0.0 0.00 0.00 0.00 82 1026.8
20260507130556 0 0 0.0 0.0 0.00 0.00 0.00 82 1026.7
20260507130105 0 0 0.0 1.6 0.00 0.00 0.00 83 1026.7
20260507125557 0 0 0.0 1.6 0.00 0.00 0.00 83 1026.7
20260507125058 0 0 0.0 1.6 0.00 0.00 0.00 83 1026.6
20260507124600 0 0 0.0 1.6 0.00 0.00 0.00 82 1026.7
20260507124056 0 0 0.0 0.0 0.00 0.00 0.00 82 1026.6
20260507123556 0 0 0.0 0.0 0.00 0.00 0.00 82 1026.5
20260507123059 1 0 0.0 0.0 0.00 0.00 0.00 83 1026.7
20260507122556 1 0 0.0 1.6 0.00 0.00 0.00 81 1026.7
20260507122056 1 0 0.0 1.6 0.00 0.00 0.00 82 1026.7
20260507121601 1 189 0.0 1.6 0.00 0.00 0.00 81 1026.7
20260507121059 1 0 0.0 1.6 0.00 0.00 0.00 80 1026.7
20260507120556 1 0 0.0 1.6 0.00 0.00 0.00 81 1026.8
20260507120058 1 0 0.0 1.6 0.00 0.00 0.00 81 1026.8
20260507115556 1 195 0.0 1.6 0.00 0.00 0.00 81 1026.7
20260507115056 1 196 0.0 3.2 0.00 0.00 0.00 83 1026.7
20260507114600 1 183 0.0 3.2 0.00 0.00 0.00 80 1026.7
20260507114056 1 179 0.0 0.0 0.00 0.00 0.00 80 1026.7
20260507113559 1 0 0.0 0.0 0.00 0.00 0.00 79 1026.7
20260507113059 1 0 0.0 0.0 0.00 0.00 0.00 81 1026.8
20260507112559 1 0 0.0 1.6 0.00 0.00 0.00 81 1026.8
20260507112059 1 0 0.0 1.6 0.00 0.00 0.00 78 1026.8
20260507111559 1 0 0.0 1.6 0.00 0.00 0.00 77 1026.9
20260507111057 1 0 0.0 0.0 0.00 0.00 0.00 76 1026.9
20260507110558 1 0 0.0 0.0 0.00 0.00 0.00 79 1026.9
20260507110103 2 0 0.0 0.0 0.00 0.00 0.00 77 1026.8
20260507105558 2 0 0.0 1.6 0.00 0.00 0.00 78 1026.8
20260507105057 2 0 0.0 3.2 0.00 0.00 0.00 75 1026.9
20260507104603 2 205 0.0 3.2 0.00 0.00 0.00 74 1026.8
20260507104056 2 0 0.0 0.0 0.00 0.00 0.00 74 1026.9
20260507103558 2 0 0.0 0.0 0.00 0.00 0.00 73 1027.0
20260507103129 2 0 0.0 3.2 0.00 0.00 0.00 72 1026.9
20260507102558 2 0 0.0 3.2 0.00 0.00 0.00 71 1026.9
20260507102058 3 0 0.0 1.6 0.00 0.00 0.00 70 1026.8
20260507101556 3 0 0.0 1.6 0.00 0.00 0.00 71 1026.9
20260507101100 3 0 0.0 1.6 0.00 0.00 0.00 73 1026.9
20260507100557 2 0 0.0 4.8 0.00 0.00 0.00 73 1026.9
20260507100110 2 173 0.0 4.8 0.00 0.00 0.00 73 1027.0
20260507095558 2 184 0.0 3.2 0.00 0.00 0.00 73 1027.0
20260507095057 2 0 0.0 1.6 0.00 0.00 0.00 74 1027.1
20260507094601 2 184 0.0 1.6 0.00 0.00 0.00 74 1027.1
20260507094058 2 0 0.0 1.6 0.00 0.00 0.00 74 1027.2
20260507093558 2 0 0.0 1.6 0.00 0.00 0.00 74 1027.2
20260507093102 3 0 0.0 0.0 0.00 0.00 0.00 74 1027.3
20260507092557 3 0 0.0 0.0 0.00 0.00 0.00 74 1027.3
20260507092058 3 0 0.0 0.0 0.00 0.00 0.00 74 1027.4
20260507091600 3 0 0.0 0.0 0.00 0.00 0.00 74 1027.7
20260507091058 3 0 0.0 1.6 0.00 0.00 0.00 74 1027.6
20260507090558 3 0 0.0 1.6 0.00 0.00 0.00 74 1027.6
20260507085558 3 0 0.0 3.2 0.00 0.00 0.00 75 1027.6
20260507085059 3 203 0.0 1.6 0.00 0.00 0.00 73 1027.6
20260507084606 4 0 0.0 0.0 0.00 0.00 0.00 72 1027.6
20260507084057 4 0 0.0 1.6 0.00 0.00 0.00 73 1027.5
20260507083558 4 0 0.0 1.6 0.00 0.00 0.00 73 1027.6
20260507083100 4 0 0.0 3.2 0.00 0.00 0.00 73 1027.6
20260507082557 4 0 0.0 3.2 0.00 0.00 0.00 73 1027.6
20260507082059 4 0 1.6 3.2 0.00 0.00 0.00 73 1027.5
20260507081601 4 186 0.0 3.2 0.00 0.00 0.00 71 1027.6
20260507081058 5 0 0.0 0.0 0.00 0.00 0.00 71 1027.5
20260507080558 5 0 0.0 0.0 0.00 0.00 0.00 71 1027.5
20260507080058 5 0 0.0 0.0 0.00 0.00 0.00 70 1027.5
20260507075601 5 0 0.0 3.2 0.00 0.00 0.00 71 1027.5
20260507075102 5 175 0.0 3.2 0.00 0.00 0.00 69 1027.5
20260507074608 5 206 0.0 3.2 0.00 0.00 0.00 68 1027.5
20260507074059 5 0 0.0 3.2 0.00 0.00 0.00 68 1027.7
20260507073558 6 0 0.0 3.2 0.00 0.00 0.00 67 1027.6
20260507073055 6 0 0.0 3.2 0.00 0.00 0.00 67 1027.6
20260507072559 6 0 0.0 0.0 0.00 0.00 0.00 66 1027.6
20260507072058 6 0 0.0 0.0 0.00 0.00 0.00 66 1027.7
20260507071606 6 0 0.0 1.6 0.00 0.00 0.00 64 1027.6
20260507071059 6 0 0.0 4.8 0.00 0.00 0.00 64 1027.5
20260507070559 6 190 0.0 4.8 0.00 0.00 0.00 63 1027.3
20260507070108 6 0 0.0 1.6 0.00 0.00 0.00 61 1027.3
20260507065558 6 229 0.0 1.6 0.00 0.00 0.00 64 1027.4
20260507065058 6 0 0.0 3.2 0.00 0.00 0.00 61 1027.3
20260507064602 6 169 0.0 3.2 0.00 0.00 0.00 61 1027.3
20260507064102 6 229 1.6 3.2 0.00 0.00 0.00 62 1027.3
20260507063557 7 0 0.0 1.6 0.00 0.00 0.00 63 1027.2
20260507063109 7 0 0.0 1.6 0.00 0.00 0.00 66 1027.1
20260507062600 7 0 0.0 1.6 0.00 0.00 0.00 59 1026.9
20260507062057 7 0 0.0 1.6 0.00 0.00 0.00 61 1026.8
20260507061559 7 0 0.0 3.2 0.00 0.00 0.00 61 1026.8
20260507061057 7 0 0.0 3.2 0.00 0.00 0.00 58 1026.8
20260507060558 7 0 0.0 1.6 0.00 0.00 0.00 56 1026.8
20260507060104 7 0 0.0 1.6 0.00 0.00 0.00 57 1026.9
20260507055558 7 0 0.0 1.6 0.00 0.00 0.00 58 1026.8
20260507055059 7 0 0.0 3.2 0.00 0.00 0.00 57 1026.9
20260507054616 7 0 0.0 6.4 0.00 0.00 0.00 56 1026.9
20260507054058 7 0 1.6 6.4 0.00 0.00 0.00 57 1026.9
20260507053600 7 245 1.6 4.8 0.00 0.00 0.00 55 1027.0
20260507053112 8 204 0.0 0.0 0.00 0.00 0.00 58 1026.9
20260507052558 8 0 0.0 1.6 0.00 0.00 0.00 54 1026.9
20260507052059 8 0 0.0 1.6 0.00 0.00 0.00 51 1026.7
20260507051600 8 0 0.0 1.6 0.00 0.00 0.00 50 1026.7
20260507051057 8 0 0.0 1.6 0.00 0.00 0.00 51 1026.6
20260507050557 9 0 0.0 0.0 0.00 0.00 0.00 50 1026.5
20260507050100 9 0 0.0 1.6 0.00 0.00 0.00 50 1026.5
20260507045558 9 0 0.0 1.6 0.00 0.00 0.00 50 1026.4
20260507045058 9 0 0.0 3.2 0.00 0.00 0.00 49 1026.5
20260507044603 9 0 0.0 3.2 0.00 0.00 0.00 48 1026.4